TimeEST,TemperatureF,Dew PointF,Humidity,Sea Level PressureIn,VisibilityMPH,Wind Direction,Wind SpeedMPH,Gust SpeedMPH,PrecipitationIn,Events,Conditions,WindDirDegrees,DateUTC
12:15 AM,32.9,22.8,66,29.92,10.0,West,15.0,25.3,N/A,,Overcast,270,2013-02-12 05:15:00
12:35 AM,32.9,22.6,66,29.93,10.0,West,13.8,24.2,N/A,,Overcast,270,2013-02-12 05:35:00
12:55 AM,32.5,22.5,66,29.93,10.0,West,17.3,21.9,N/A,,Overcast,270,2013-02-12 05:55:00
1:15 AM,32.5,22.5,66,29.94,10.0,West,15.0,23.0,N/A,,Overcast,270,2013-02-12 06:15:00
1:35 AM,32.4,23.0,68,29.95,10.0,West,6.9,-,N/A,,Overcast,270,2013-02-12 06:35:00
1:55 AM,32.4,23.0,68,29.95,10.0,West,12.7,18.4,N/A,,Overcast,270,2013-02-12 06:55:00
2:15 AM,32.2,23.0,69,29.96,10.0,West,15.0,20.7,N/A,,Overcast,270,2013-02-12 07:15:00
2:35 AM,32.2,22.8,68,29.96,10.0,West,12.7,18.4,N/A,,Overcast,270,2013-02-12 07:35:00
2:55 AM,32.0,22.5,68,29.98,10.0,West,12.7,19.6,N/A,,Overcast,260,2013-02-12 07:55:00
3:15 AM,32.0,22.5,68,29.98,10.0,West,10.4,17.3,N/A,,Overcast,260,2013-02-12 08:15:00
3:35 AM,32.0,22.6,68,29.98,10.0,West,11.5,16.1,N/A,,Overcast,270,2013-02-12 08:35:00
3:55 AM,32.0,22.5,68,29.99,10.0,West,10.4,18.4,N/A,,Overcast,260,2013-02-12 08:55:00
4:15 AM,32.0,22.8,69,29.99,10.0,West,10.4,16.1,N/A,,Overcast,270,2013-02-12 09:15:00
4:35 AM,32.0,23.0,69,29.99,10.0,West,9.2,-,N/A,,Overcast,270,2013-02-12 09:35:00
4:55 AM,32.0,23.0,69,30.00,10.0,West,10.4,16.1,N/A,,Overcast,260,2013-02-12 09:55:00
5:15 AM,32.0,23.0,69,30.00,10.0,West,9.2,-,N/A,,Overcast,270,2013-02-12 10:15:00
5:35 AM,32.0,23.0,69,30.01,10.0,West,9.2,16.1,N/A,,Overcast,270,2013-02-12 10:35:00
5:55 AM,32.0,23.0,69,30.01,10.0,West,11.5,-,N/A,,Overcast,260,2013-02-12 10:55:00
6:15 AM,32.0,22.6,68,30.02,10.0,West,12.7,18.4,N/A,,Overcast,280,2013-02-12 11:15:00
6:35 AM,32.0,22.1,67,30.03,10.0,West,10.4,18.4,N/A,,Overcast,280,2013-02-12 11:35:00
6:55 AM,32.0,22.6,68,30.03,10.0,West,8.1,-,N/A,,Overcast,270,2013-02-12 11:55:00
7:15 AM,32.0,23.2,70,30.04,10.0,West,8.1,-,N/A,,Overcast,260,2013-02-12 12:15:00
7:35 AM,31.8,23.7,72,30.04,10.0,West,9.2,-,N/A,,Overcast,270,2013-02-12 12:35:00
7:55 AM,31.6,23.0,70,30.05,10.0,West,9.2,16.1,N/A,,Overcast,270,2013-02-12 12:55:00
8:15 AM,31.6,23.0,70,30.05,10.0,West,9.2,-,N/A,,Overcast,260,2013-02-12 13:15:00
8:35 AM,31.5,23.0,71,30.05,10.0,West,10.4,-,N/A,,Overcast,260,2013-02-12 13:35:00
8:55 AM,31.6,23.0,70,30.06,10.0,West,11.5,-,N/A,,Overcast,270,2013-02-12 13:55:00
9:15 AM,31.6,22.6,69,30.06,10.0,West,9.2,-,N/A,,Overcast,270,2013-02-12 14:15:00
9:35 AM,31.8,22.1,67,30.06,10.0,West,6.9,-,N/A,,Overcast,260,2013-02-12 14:35:00
9:55 AM,32.0,22.6,68,30.07,10.0,West,8.1,-,N/A,,Overcast,260,2013-02-12 14:55:00
10:15 AM,31.8,23.0,70,30.07,10.0,West,8.1,-,N/A,,Overcast,270,2013-02-12 15:15:00
10:34 AM,31.8,22.8,69,30.07,10.0,West,12.7,16.1,N/A,,Overcast,260,2013-02-12 15:34:00
10:55 AM,32.0,22.8,69,30.07,10.0,West,9.2,-,N/A,,Overcast,260,2013-02-12 15:55:00
11:15 AM,32.0,22.1,67,30.06,10.0,West,6.9,-,N/A,,Overcast,260,2013-02-12 16:15:00
11:35 AM,32.0,22.1,67,30.06,10.0,WSW,9.2,-,N/A,,Overcast,250,2013-02-12 16:35:00
11:55 AM,32.2,22.3,67,30.06,10.0,West,10.4,-,N/A,,Overcast,260,2013-02-12 16:55:00
12:15 PM,32.7,22.5,66,30.07,10.0,WSW,6.9,-,N/A,,Overcast,250,2013-02-12 17:15:00
12:35 PM,33.1,22.6,66,30.05,10.0,WSW,9.2,-,N/A,,Overcast,250,2013-02-12 17:35:00
12:55 PM,33.4,22.6,65,30.03,10.0,WSW,8.1,-,N/A,,Overcast,240,2013-02-12 17:55:00
1:15 PM,33.8,22.8,64,30.00,10.0,West,9.2,16.1,N/A,,Overcast,270,2013-02-12 18:15:00
1:35 PM,33.8,23.2,65,29.98,10.0,West,6.9,-,N/A,,Overcast,260,2013-02-12 18:35:00
1:55 PM,33.6,23.5,67,29.97,10.0,West,8.1,-,N/A,,Overcast,270,2013-02-12 18:55:00
2:15 PM,35.1,23.2,62,29.96,10.0,West,8.1,-,N/A,,Overcast,260,2013-02-12 19:15:00
2:35 PM,34.0,22.3,62,29.98,10.0,West,10.4,-,N/A,,Mostly Cloudy,260,2013-02-12 19:35:00
2:55 PM,35.4,23.2,61,29.98,10.0,WSW,10.4,-,N/A,,Overcast,240,2013-02-12 19:55:00
3:15 PM,34.9,22.8,61,29.98,10.0,WSW,8.1,-,N/A,,Overcast,250,2013-02-12 20:15:00
3:35 PM,34.9,23.0,62,29.98,10.0,WSW,11.5,16.1,N/A,,Overcast,240,2013-02-12 20:35:00
3:55 PM,34.9,23.0,62,29.98,10.0,WSW,6.9,-,N/A,,Overcast,250,2013-02-12 20:55:00
4:15 PM,34.7,23.7,64,29.98,10.0,WSW,10.4,-,N/A,,Overcast,250,2013-02-12 21:15:00
4:35 PM,34.7,23.0,62,29.99,10.0,SW,6.9,-,N/A,,Overcast,230,2013-02-12 21:35:00
4:55 PM,34.7,23.0,62,29.98,10.0,SW,9.2,-,N/A,,Overcast,230,2013-02-12 21:55:00
5:15 PM,34.7,23.2,63,29.98,10.0,WSW,6.9,-,N/A,,Overcast,240,2013-02-12 22:15:00
5:35 PM,34.7,23.7,64,29.97,10.0,WSW,4.6,-,N/A,,Overcast,240,2013-02-12 22:35:00
5:55 PM,34.7,23.9,65,29.98,10.0,WSW,3.5,-,N/A,,Overcast,240,2013-02-12 22:55:00
6:15 PM,34.3,24.4,67,29.97,10.0,Calm,Calm,-,N/A,,Overcast,0,2013-02-12 23:15:00
6:35 PM,34.2,24.4,68,29.97,10.0,SW,3.5,-,N/A,,Overcast,230,2013-02-12 23:35:00
6:55 PM,34.3,24.8,68,29.97,10.0,Calm,Calm,-,N/A,,Overcast,0,2013-02-12 23:55:00
7:06 PM,33.8,25.0,70,29.96,10.0,Calm,Calm,-,N/A,,Overcast,0,2013-02-13 00:06:00
7:40 PM,-9999,-9999,N/A,-9999,10.0,NW,3.5,-,N/A,,Unknown,310,2013-02-13 00:40:00
7:57 PM,-9999,-9999,N/A,-9999,-9999.0,North,-9999.0,-,N/A,,Unknown,0,2013-02-13 00:57:00
8:12 PM,32.9,25.3,74,29.96,10.0,Calm,Calm,-,N/A,,Overcast,0,2013-02-13 01:12:00
8:35 PM,32.9,24.6,72,29.95,10.0,Calm,Calm,-,N/A,,Overcast,0,2013-02-13 01:35:00
8:55 PM,32.9,24.4,71,29.95,10.0,Calm,Calm,-,N/A,,Overcast,0,2013-02-13 01:55:00
9:15 PM,32.5,24.3,72,29.95,10.0,NW,3.5,-,N/A,,Overcast,310,2013-02-13 02:15:00
9:35 PM,32.2,24.3,73,29.94,10.0,WNW,3.5,-,N/A,,Overcast,300,2013-02-13 02:35:00
9:55 PM,32.0,23.2,70,29.94,10.0,WNW,3.5,-,N/A,,Overcast,300,2013-02-13 02:55:00
10:15 PM,31.5,22.8,70,29.94,10.0,West,5.8,-,N/A,,Mostly Cloudy,280,2013-02-13 03:15:00
10:35 PM,31.5,22.5,69,29.93,10.0,Calm,Calm,-,N/A,,Mostly Cloudy,0,2013-02-13 03:35:00
10:55 PM,31.5,22.6,70,29.93,10.0,WNW,3.5,-,N/A,,Overcast,290,2013-02-13 03:55:00
11:15 PM,31.3,22.3,69,29.93,10.0,NW,3.5,-,N/A,,Overcast,310,2013-02-13 04:15:00
11:35 PM,31.5,22.3,69,29.93,10.0,WNW,5.8,-,N/A,,Overcast,300,2013-02-13 04:35:00
11:55 PM,31.3,22.8,71,29.93,10.0,WNW,3.5,-,N/A,,Overcast,290,2013-02-13 04:55:00